Gainesville, GA

9:22 AM EDT on June 25, 2017 (GMT -0400)
Gilmer Memorial

Weather History for KGVL - December, 2014

Change the Weather History Date:

Friday, December 26, 2014

  Actual Average Record
Temperature  
Mean Temperature 46 °F 42 °F  
Max Temperature 60 °F 50 °F 74 °F (2015)
Min Temperature 32 °F 34 °F 5 °F (1983)
Degree Days  
Heating Degree Days 19 23  
Month to date heating degree days 453 544  
Since 1 July heating degree days 1096 1079  
Moisture  
Dew Point 31 °F    
Average Humidity 60    
Maximum Humidity 96    
Minimum Humidity 23    
Precipitation  
Precipitation 0.00 in 0.11 in 2.40 in (1943)
Month to date precipitation 3.27 4.04  
Year to date precipitation 44.94 53.52  
Snow  
Snow 0.00 in - - ()
Month to date snowfall 0.0  
Since 1 July snowfall 0.0  
Snow Depth 0.00 in    
Sea Level Pressure  
Sea Level Pressure 30.30 in    
Wind  
Wind Speed 2 mph (ENE)    
Max Wind Speed 7 mph    
Max Gust Speed 10 mph    
Visibility 10 miles    
Events      
T = Trace of Precipitation, MM = Missing Value Source: NWS Daily Summary

Daily Weather History Graph

Daily Weather History Graph

Search for Another Location

Airport or City:

Trip Planner

Search our weather history database for the weather conditions in past years. The results will help you decide how hot, cold, wet, or windy it might be!

Date:

Astronomy

Dec. 26, 2014 Rise Set
Actual Time 7:39 AM EST 5:32 PM EST
Civil Twilight 7:11 AM EST 6:00 PM EST
Nautical Twilight 6:40 AM EST 6:31 PM EST
Astronomical Twilight 6:09 AM EST 7:02 PM EST
Moon 11:02 AM EST (12/26) 11:00 PM EST (12/26)
Length of Visible Light 10h 48m
Length of Day
9h 52m
Waxing Crescent, 27% of the Moon is Illuminated
Dec 26
Waxing Crescent
Dec 28
First Quarter
Jan 4
Full
Jan 13
Last Quarter
Jan 20
New

Hourly Weather History & Observations

Time (EST) Temp. Windchill Dew Point Humidity Pressure Visibility Wind Dir Wind Speed Gust Speed Precip Events Conditions
12:53 AM 36.0 °F - 33.1 °F 89% 30.26 in 10.0 mi Calm Calm - N/A   Clear
1:53 AM 35.1 °F 32.2 °F 33.1 °F 92% 30.25 in 10.0 mi North 3.5 mph - N/A   Clear
2:53 AM 34.0 °F - 32.0 °F 92% 30.27 in 10.0 mi Calm Calm - N/A   Clear
3:53 AM 34.0 °F 29.8 °F 32.0 °F 92% 30.27 in 10.0 mi NNE 4.6 mph - N/A   Clear
4:53 AM 34.0 °F 29.8 °F 30.9 °F 89% 30.27 in 10.0 mi NNE 4.6 mph - N/A   Clear
5:53 AM 34.0 °F 29.8 °F 30.9 °F 89% 30.28 in 10.0 mi NNE 4.6 mph - N/A   Clear
6:53 AM 34.0 °F 31.0 °F 30.0 °F 85% 30.31 in 10.0 mi ENE 3.5 mph - N/A   Clear
7:53 AM 33.1 °F 30.0 °F 28.9 °F 85% 30.34 in 10.0 mi NNE 3.5 mph - N/A   Clear
8:53 AM 37.9 °F - 32.0 °F 79% 30.36 in 10.0 mi Calm Calm - N/A   Clear
9:53 AM 45.0 °F 43.5 °F 34.0 °F 65% 30.36 in 10.0 mi North 3.5 mph - N/A   Clear
10:53 AM 48.0 °F - 34.0 °F 58% 30.37 in 10.0 mi ESE 5.8 mph - N/A   Clear
11:53 AM 51.1 °F - 34.0 °F 52% 30.35 in 10.0 mi Variable 3.5 mph - N/A   Clear
12:53 PM 53.1 °F - 30.9 °F 43% 30.32 in 10.0 mi Calm Calm - N/A   Clear
1:53 PM 55.9 °F - 30.9 °F 39% 30.29 in 10.0 mi Calm Calm - N/A   Clear
2:53 PM 57.0 °F - 28.9 °F 34% 30.26 in 10.0 mi Calm Calm - N/A   Clear
3:53 PM 57.9 °F - 19.0 °F 22% 30.28 in 10.0 mi Calm Calm - N/A   Clear
4:53 PM 54.0 °F - 26.1 °F 34% 30.28 in 10.0 mi WSW 4.6 mph - N/A   Clear
5:53 PM 52.0 °F - 28.0 °F 40% 30.29 in 10.0 mi SE 3.5 mph - N/A   Clear
6:53 PM 50.0 °F - 30.0 °F 46% 30.29 in 10.0 mi SE 4.6 mph - N/A   Clear
7:53 PM 48.9 °F - 30.0 °F 48% 30.31 in 10.0 mi SSE 3.5 mph - N/A   Clear
8:53 PM 46.9 °F - 30.9 °F 54% 30.32 in 10.0 mi Calm Calm - N/A   Clear
9:53 PM 48.9 °F - 32.0 °F 52% 30.32 in 10.0 mi SSE 3.5 mph - N/A   Clear
10:53 PM 43.0 °F - 32.0 °F 65% 30.32 in 10.0 mi Calm Calm - N/A   Clear
11:53 PM 42.1 °F - 33.1 °F 70% 30.32 in 10.0 mi Calm Calm - N/A   Clear